Weather History for Thomson, GA

Change the Weather History Date:

Sunday, August 5, 2012

  Actual Average (KDBN) Record (KDBN)
Temperature  
Mean Temperature 76 °F -  
Max Temperature 83 °F 92 °F 104 °F (1954)
Min Temperature 68 °F 68 °F 58 °F (1976)
Cooling Degree Days 10    
Growing Degree Days 26 (Base 50)    
Moisture  
Dew Point 72 °F    
Average Humidity 90    
Maximum Humidity 100    
Minimum Humidity 67    
Precipitation  
Precipitation 0.00 in - - ()
Sea Level Pressure  
Sea Level Pressure 30.21 in    
Wind  
Wind Speed - (North)    
Max Wind Speed -    
Max Gust Speed -    
Visibility 9 miles    
Events      
Averages and records for this station are not official NWS values.
T = Trace of Precipitation, MM = Missing Value Source: NWS Daily Summary

Daily Weather History Graph

Daily Weather History Graph

Search for Another Location

Airport:

Trip Planner

Search our weather history database for the weather conditions in past years. The results will help you decide how hot, cold, wet, or windy it might be!

Date:

Astronomy

Aug. 05, 2012 Rise Set
Actual Time 6:45 AM EDT 8:25 PM EDT
Civil Twilight 6:18 AM EDT 8:52 PM EDT
Nautical Twilight 5:46 AM EDT 9:25 PM EDT
Astronomical Twilight 5:12 AM EDT 9:59 PM EDT
Moon 10:20 PM EDT (8/5) 10:18 AM EDT (8/5)
Length of Visible Light 14h 34m
Length of Day
13h 40m
Waning Gibbous, 86% of the Moon is Illuminated
Aug 5
Waning Gibbous
Aug 9
Last Quarter
Aug 17
New
Aug 24
First Quarter
Aug 31
Full

Hourly Weather History & Observations

Time (EDT) Temp. Heat Index Dew Point Humidity Pressure Visibility Wind Dir Wind Speed Gust Speed Precip Events Conditions
12:15 AM 73.4 °F - 73.4 °F 100% 30.21 in 10.0 mi North - - N/A   Clear
12:35 AM 72.7 °F - 72.7 °F 100% 30.21 in 10.0 mi North - - N/A   Clear
12:55 AM 72.7 °F - 72.7 °F 100% 30.22 in 10.0 mi North - - N/A   Clear
1:15 AM 72.7 °F - 72.5 °F 99% 30.21 in 10.0 mi North - - N/A   Clear
1:35 AM 72.5 °F - 72.5 °F 100% 30.21 in 10.0 mi North - - N/A   Clear
1:55 AM 71.8 °F - 71.8 °F 100% 30.21 in 10.0 mi North - - N/A   Clear
2:15 AM 72.1 °F - 72.1 °F 100% 30.21 in 10.0 mi North - - N/A   Clear
2:35 AM 71.8 °F - 71.8 °F 100% 30.21 in 10.0 mi North - - N/A   Clear
2:55 AM 71.1 °F - 71.1 °F 100% 30.20 in 10.0 mi North - - N/A   Clear
3:15 AM 70.9 °F - 70.9 °F 100% 30.20 in 10.0 mi North - - N/A   Clear
3:35 AM 71.8 °F - 71.8 °F 100% 30.21 in 10.0 mi North - - N/A   Clear
3:55 AM 71.1 °F - 71.1 °F 100% 30.21 in 10.0 mi North - - N/A   Clear
4:15 AM 70.9 °F - 70.9 °F 100% 30.20 in 10.0 mi North - - N/A   Clear
4:35 AM 70.2 °F - 70.2 °F 100% 30.20 in 10.0 mi North - - N/A   Clear
4:55 AM 70.0 °F - 70.0 °F 100% 30.20 in 7.0 mi North - - N/A   Clear
5:15 AM 69.8 °F - 69.8 °F 100% 30.20 in 7.0 mi North - - N/A   Clear
5:35 AM 69.6 °F - 69.6 °F 100% 30.21 in 7.0 mi North - - N/A   Clear
5:55 AM 69.1 °F - 69.1 °F 100% 30.21 in 10.0 mi North - - N/A   Clear
6:15 AM 68.9 °F - 68.9 °F 100% 30.22 in 7.0 mi North - - N/A   Clear
6:35 AM 68.9 °F - 68.9 °F 100% 30.22 in 7.0 mi North - - N/A   Clear
6:55 AM 68.9 °F - 68.9 °F 100% 30.22 in 5.0 mi North - - N/A   Clear
7:15 AM 69.3 °F - 69.3 °F 100% 30.23 in 5.0 mi North - - N/A   Clear
7:55 AM 70.9 °F - 70.9 °F 100% 30.23 in 7.0 mi North - - N/A   Scattered Clouds
8:15 AM 72.7 °F - 72.7 °F 100% 30.23 in 10.0 mi North - - N/A   Mostly Cloudy
8:35 AM 73.6 °F - 73.6 °F 100% 30.23 in 4.0 mi North - - N/A   Overcast
8:55 AM 74.5 °F - 74.5 °F 100% 30.24 in 4.0 mi North - - N/A   Overcast
9:15 AM 75.9 °F - 75.0 °F 97% 30.25 in 5.0 mi North - - N/A   Mostly Cloudy
9:35 AM 77.4 °F - 75.2 °F 93% 30.25 in 7.0 mi North - - N/A   Scattered Clouds
9:55 AM 78.4 °F - 75.2 °F 90% 30.25 in 10.0 mi North - - N/A   Scattered Clouds
10:15 AM 78.8 °F - 75.0 °F 88% 30.25 in 10.0 mi North - - N/A   Scattered Clouds
10:35 AM 80.6 °F 85.7 °F 74.3 °F 81% 30.26 in 10.0 mi North - - N/A   Scattered Clouds
10:55 AM 81.9 °F 88.0 °F 74.5 °F 78% 30.26 in 10.0 mi North - - N/A   Scattered Clouds
11:15 AM 82.8 °F 89.0 °F 73.6 °F 74% 30.27 in 10.0 mi North - - N/A   Scattered Clouds
11:35 AM 82.9 °F 88.5 °F 72.5 °F 71% 30.26 in 10.0 mi North - - N/A   Scattered Clouds
11:55 AM 81.5 °F 85.5 °F 71.1 °F 70% 30.27 in 10.0 mi North - - N/A   Scattered Clouds
12:15 PM 74.3 °F - 71.1 °F 90% 30.27 in 10.0 mi North - - N/A   Mostly Cloudy
12:35 PM 73.6 °F - 73.0 °F 98% 30.27 in 7.0 mi North - - N/A   Overcast
12:55 PM 74.5 °F - 72.0 °F 92% 30.26 in 10.0 mi North - - N/A   Overcast
1:15 PM 76.5 °F - 71.6 °F 85% 30.25 in 10.0 mi North - - N/A   Mostly Cloudy
1:55 PM 81.0 °F 85.4 °F 72.5 °F 75% 30.22 in 10.0 mi North - - N/A   Mostly Cloudy
2:15 PM 78.8 °F - 72.5 °F 81% 30.21 in 10.0 mi North - - N/A   Scattered Clouds
2:35 PM 79.3 °F - 72.1 °F 79% 30.21 in 10.0 mi North - - N/A   Clear
2:55 PM 82.2 °F 87.3 °F 72.5 °F 72% 30.20 in 10.0 mi North - - N/A   Clear
3:15 PM 83.5 °F 88.5 °F 71.6 °F 67% 30.20 in 10.0 mi North - - N/A   Clear
3:35 PM 82.4 °F 87.4 °F 72.3 °F 71% 30.19 in 10.0 mi North - - N/A   Scattered Clouds
3:55 PM 81.9 °F 87.3 °F 73.4 °F 75% 30.18 in 10.0 mi North - - N/A   Scattered Clouds
4:35 PM 81.9 °F 87.0 °F 72.7 °F 74% 30.17 in 10.0 mi North - - N/A   Scattered Clouds
4:55 PM 82.9 °F 88.8 °F 73.0 °F 72% 30.16 in 10.0 mi North - - N/A   Scattered Clouds
6:35 PM 81.5 °F 85.9 °F 71.6 °F 72% 30.16 in 10.0 mi North - - N/A   Mostly Cloudy
6:55 PM 80.6 °F 84.6 °F 71.6 °F 74% 30.17 in 10.0 mi North - - N/A   Scattered Clouds
7:15 PM 81.3 °F 85.9 °F 72.3 °F 74% 30.17 in 10.0 mi North - - N/A   Clear
7:35 PM 80.4 °F 84.7 °F 72.5 °F 77% 30.17 in 10.0 mi North - - N/A   Clear
7:55 PM 79.3 °F - 72.5 °F 79% 30.17 in 10.0 mi North - - N/A   Clear
8:15 PM 78.1 °F - 72.7 °F 83% 30.18 in 10.0 mi North - - N/A   Clear
8:35 PM 77.5 °F - 72.3 °F 84% 30.18 in 10.0 mi North - - N/A   Clear
8:55 PM 77.0 °F - 72.5 °F 86% 30.18 in 10.0 mi North - - N/A   Clear
9:15 PM 76.6 °F - 72.1 °F 86% 30.18 in 10.0 mi North - - N/A   Clear
9:35 PM 76.1 °F - 72.5 °F 89% 30.18 in 10.0 mi North - - N/A   Clear
9:55 PM 75.0 °F - 72.5 °F 92% 30.18 in 10.0 mi North - - N/A   Clear
10:15 PM 74.7 °F - 72.5 °F 93% 30.19 in 10.0 mi North - - N/A   Clear
10:35 PM 73.8 °F - 72.5 °F 96% 30.19 in 10.0 mi North - - N/A   Clear
10:55 PM 73.0 °F - 72.3 °F 98% 30.19 in 10.0 mi North - - N/A   Clear
11:15 PM 72.9 °F - 72.3 °F 98% 30.19 in 10.0 mi North - - N/A   Clear
11:35 PM 72.3 °F - 72.3 °F 100% 30.19 in 10.0 mi North - - N/A   Clear